El Segundo, CA

5:32 PM PST on December 10, 2016 (GMT -0800)
Los Angeles International

Weather History for KLAX - October, 2013

Change the Weather History Date:

Sunday, October 27, 2013

  Actual Average Record
Temperature  
Mean Temperature 62 °F 65 °F  
Max Temperature 67 °F 72 °F 91 °F (1973)
Min Temperature 56 °F 57 °F 47 °F (1949)
Degree Days  
Heating Degree Days 3 2  
Month to date heating degree days 26 28  
Since 1 July heating degree days 27 37  
Cooling Degree Days 0 2  
Month to date cooling degree days 71 61  
Year to date cooling degree days 662 529  
Growing Degree Days 12 (Base 50)    
Moisture  
Dew Point 57 °F    
Average Humidity 87    
Maximum Humidity 100    
Minimum Humidity 73    
Precipitation  
Precipitation 0.00 in 0.03 in 0.71 in (2004)
Month to date precipitation 0.02 0.45  
Year to date precipitation 2.66 9.55  
Since 1 July precipitation 0.05  
Sea Level Pressure  
Sea Level Pressure 29.91 in    
Wind  
Wind Speed 6 mph (South)    
Max Wind Speed 17 mph    
Max Gust Speed 23 mph    
Visibility 4 miles    
Events Fog    
T = Trace of Precipitation, MM = Missing Value Source: NWS Daily Summary

Daily Weather History Graph

Daily Weather History Graph

Search for Another Location

Airport or City:

Trip Planner

Search our weather history database for the weather conditions in past years. The results will help you decide how hot, cold, wet, or windy it might be!

Date:

Astronomy

Oct. 27, 2013 Rise Set
Actual Time 7:08 AM PDT 6:05 PM PDT
Civil Twilight 6:43 AM PDT 6:31 PM PDT
Nautical Twilight 6:13 AM PDT 7:00 PM PDT
Astronomical Twilight 5:44 AM PDT 7:29 PM PDT
Moon 12:28 AM PDT (10/27) 2:00 PM PDT (10/27)
Length of Visible Light 11h 47m
Length of Day
10h 56m
Last Quarter, 42% of the Moon is Illuminated
Oct 27
Last Quarter
Nov 3
New
Nov 9
First Quarter
Nov 17
Full
Nov 25
Last Quarter

Hourly Weather History & Observations

Time (PDT) Temp. Dew Point Humidity Pressure Visibility Wind Dir Wind Speed Gust Speed Precip Events Conditions
12:53 AM 61.0 °F 57.0 °F 87% 29.96 in 6.0 mi ESE 3.5 mph - N/A   Partly Cloudy
1:53 AM 59.0 °F 55.9 °F 90% 29.96 in 6.0 mi Calm Calm - N/A   Partly Cloudy
2:53 AM 60.1 °F 57.0 °F 90% 29.95 in 5.0 mi Calm Calm - N/A   Clear
3:19 AM 57.2 °F 55.4 °F 94% 29.94 in 6.0 mi ENE 3.5 mph - N/A   Partly Cloudy
3:53 AM 55.9 °F 55.0 °F 97% 29.93 in 5.0 mi Calm Calm - N/A Fog Patches of Fog
4:21 AM 55.4 °F 55.4 °F 100% 29.93 in 1.5 mi East 5.8 mph - N/A Fog Patches of Fog
4:38 AM 55.4 °F 55.4 °F 100% 29.93 in 0.2 mi East 5.8 mph - N/A Fog Fog
4:53 AM 57.0 °F 57.0 °F 100% 29.93 in 0.2 mi East 4.6 mph - N/A Fog Fog
5:53 AM 57.9 °F 57.0 °F 97% 29.93 in 0.2 mi ESE 3.5 mph - 0.01 in Fog Fog
6:38 AM 57.2 °F 57.2 °F 100% 29.93 in 0.2 mi East 3.5 mph - N/A Fog Fog
6:53 AM 57.9 °F 57.9 °F 100% 29.93 in 0.2 mi SE 4.6 mph - N/A Fog Fog
7:38 AM 57.2 °F 57.2 °F 100% 29.94 in 0.1 mi SE 4.6 mph - N/A Fog Fog
7:53 AM 57.9 °F 57.9 °F 100% 29.94 in 0.1 mi Calm Calm - N/A Fog Fog
8:02 AM 57.2 °F 57.2 °F 100% 29.95 in 0.2 mi East 3.5 mph - N/A Fog Fog
8:18 AM 59.0 °F 59.0 °F 100% 29.95 in 0.5 mi East 3.5 mph - N/A Fog Fog
8:53 AM 59.0 °F 59.0 °F 100% 29.96 in 0.8 mi Calm Calm - N/A   Overcast
9:09 AM 59.0 °F 59.0 °F 100% 29.96 in 1.0 mi SSE 4.6 mph - N/A   Overcast
9:53 AM 60.1 °F 59.0 °F 96% 29.96 in 1.2 mi ESE 5.8 mph - N/A   Overcast
10:08 AM 60.8 °F 57.2 °F 88% 29.96 in 1.8 mi Calm Calm - N/A   Overcast
10:53 AM 63.0 °F 59.0 °F 87% 29.95 in 1.8 mi Variable 5.8 mph - N/A   Overcast
11:05 AM 62.6 °F 59.0 °F 88% 29.95 in 2.5 mi Calm Calm - N/A   Mostly Cloudy
11:53 AM 66.0 °F 57.9 °F 75% 29.94 in 2.5 mi WSW 4.6 mph - N/A   Haze
12:03 PM 66.2 °F 59.0 °F 78% 29.94 in 2.5 mi West 4.6 mph - N/A   Haze
12:53 PM 66.0 °F 59.0 °F 78% 29.91 in 2.5 mi West 8.1 mph - N/A   Haze
1:18 PM 64.4 °F 57.2 °F 77% 29.89 in 4.0 mi WSW 9.2 mph - N/A   Haze
1:53 PM 64.9 °F 57.0 °F 75% 29.88 in 4.0 mi West 11.5 mph - N/A   Haze
2:43 PM 64.4 °F 57.2 °F 77% 29.87 in 4.0 mi WSW 12.7 mph - N/A   Haze
2:53 PM 64.0 °F 55.9 °F 75% 29.86 in 4.0 mi WSW 11.5 mph - N/A   Haze
3:53 PM 63.0 °F 55.9 °F 78% 29.85 in 4.0 mi West 10.4 mph - N/A   Haze
4:53 PM 62.1 °F 57.0 °F 84% 29.84 in 4.0 mi West 8.1 mph - N/A   Haze
5:53 PM 62.1 °F 55.9 °F 80% 29.83 in 8.0 mi WSW 10.4 mph - N/A   Overcast
6:53 PM 62.1 °F 55.9 °F 80% 29.83 in 8.0 mi West 9.2 mph - N/A   Overcast
7:53 PM 62.1 °F 55.9 °F 80% 29.83 in 8.0 mi SSW 6.9 mph - N/A   Overcast
8:51 PM 62.6 °F 55.4 °F 77% 29.83 in 10.0 mi South 8.1 mph - N/A   Overcast
8:53 PM 62.1 °F 55.0 °F 78% 29.83 in 10.0 mi South 9.2 mph - N/A   Overcast
9:53 PM 61.0 °F 55.0 °F 81% 29.84 in 10.0 mi SSE 4.6 mph - N/A   Overcast
10:53 PM 61.0 °F 54.0 °F 78% 29.84 in 10.0 mi WSW 6.9 mph - N/A   Overcast
11:53 PM 61.0 °F 55.0 °F 81% 29.84 in 10.0 mi WSW 12.7 mph - N/A   Overcast